Time,TemperatureF,DewpointF,PressureIn,WindDirection,WindDirectionDegrees,WindSpeedMPH,WindSpeedGustMPH,Humidity,HourlyPrecipIn,Conditions,Clouds,dailyrainin,SoftwareType,DateUTC
2013-11-23 00:05:00,35.1,32.0,30.50,North,11,0.0,8.0,87,0.00,,,0.00,weatherlink.com 1.10,2013-11-23 06:05:00,
2013-11-23 00:20:00,35.0,32.0,30.49,North,5,0.0,10.0,87,0.00,,,0.00,weatherlink.com 1.10,2013-11-23 06:20:00,
2013-11-23 00:35:00,34.8,31.0,30.49,NE,41,1.0,7.0,86,0.00,,,0.00,weatherlink.com 1.10,2013-11-23 06:35:00,
2013-11-23 00:50:00,34.6,31.0,30.48,NW,313,4.0,7.0,86,0.00,,,0.00,weatherlink.com 1.10,2013-11-23 06:50:00,
2013-11-23 01:05:00,34.4,31.0,30.49,NW,313,1.0,6.0,87,0.00,,,0.00,weatherlink.com 1.10,2013-11-23 07:05:00,
2013-11-23 01:20:00,34.1,31.0,30.49,North,360,1.0,7.0,87,0.00,,,0.00,weatherlink.com 1.10,2013-11-23 07:20:00,
2013-11-23 01:35:00,33.9,31.0,30.50,NNW,331,1.0,7.0,87,0.00,,,0.00,weatherlink.com 1.10,2013-11-23 07:35:00,
2013-11-23 01:50:00,33.6,30.0,30.50,North,355,0.0,9.0,87,0.00,,,0.00,weatherlink.com 1.10,2013-11-23 07:50:00,
2013-11-23 02:05:00,33.3,30.0,30.50,NW,315,2.0,6.0,87,0.00,,,0.00,weatherlink.com 1.10,2013-11-23 08:05:00,
2013-11-23 02:20:00,33.0,30.0,30.51,NNW,329,0.0,8.0,87,0.00,,,0.00,weatherlink.com 1.10,2013-11-23 08:20:00,
2013-11-23 02:35:00,32.8,30.0,30.51,North,360,1.0,6.0,88,0.00,,,0.00,weatherlink.com 1.10,2013-11-23 08:35:00,
2013-11-23 02:50:00,32.6,30.0,30.51,NW,321,0.0,10.0,88,0.00,,,0.00,weatherlink.com 1.10,2013-11-23 08:50:00,
2013-11-23 03:05:00,32.5,29.0,30.52,West,269,0.0,6.0,88,0.00,,,0.00,weatherlink.com 1.10,2013-11-23 09:05:00,
2013-11-23 03:20:00,32.2,29.0,30.52,North,11,0.0,6.0,88,0.00,,,0.00,weatherlink.com 1.10,2013-11-23 09:20:00,
2013-11-23 03:35:00,32.0,29.0,30.51,WSW,247,0.0,4.0,89,0.00,,,0.00,weatherlink.com 1.10,2013-11-23 09:35:00,
2013-11-23 03:50:00,31.7,29.0,30.52,NW,306,0.0,8.0,89,0.00,,,0.00,weatherlink.com 1.10,2013-11-23 09:50:00,
2013-11-23 04:05:00,31.4,29.0,30.52,NW,322,1.0,2.0,89,0.00,,,0.00,weatherlink.com 1.10,2013-11-23 10:05:00,
2013-11-23 04:20:00,31.1,28.0,30.52,WNW,295,0.0,6.0,89,0.00,,,0.00,weatherlink.com 1.10,2013-11-23 10:20:00,
2013-11-23 04:35:00,30.7,28.0,30.52,NW,319,0.0,4.0,89,0.00,,,0.00,weatherlink.com 1.10,2013-11-23 10:35:00,
2013-11-23 04:50:00,30.4,27.0,30.52,NW,310,0.0,3.0,88,0.00,,,0.00,weatherlink.com 1.10,2013-11-23 10:50:00,
2013-11-23 05:05:00,30.1,27.0,30.51,NW,310,0.0,1.0,88,0.00,,,0.00,weatherlink.com 1.10,2013-11-23 11:05:00,
2013-11-23 05:20:00,29.9,27.0,30.52,NNW,338,0.0,4.0,88,0.00,,,0.00,weatherlink.com 1.10,2013-11-23 11:20:00,
2013-11-23 05:35:00,29.8,27.0,30.52,NNW,338,0.0,1.0,88,0.00,,,0.00,weatherlink.com 1.10,2013-11-23 11:35:00,
2013-11-23 05:50:00,29.9,27.0,30.53,WSW,238,1.0,3.0,88,0.00,,,0.00,weatherlink.com 1.10,2013-11-23 11:50:00,
2013-11-23 06:05:00,30.1,27.0,30.53,NW,318,1.0,4.0,87,0.00,,,0.00,weatherlink.com 1.10,2013-11-23 12:05:00,
2013-11-23 06:20:00,30.1,26.0,30.55,NW,309,4.0,4.0,86,0.00,,,0.00,weatherlink.com 1.10,2013-11-23 12:20:00,
2013-11-23 06:35:00,30.1,25.0,30.55,North,9,5.0,7.0,82,0.00,,,0.00,weatherlink.com 1.10,2013-11-23 12:35:00,
2013-11-23 06:50:00,30.4,21.0,30.55,WNW,291,0.0,7.0,69,0.00,,,0.00,weatherlink.com 1.10,2013-11-23 12:50:00,
2013-11-23 07:05:00,30.4,20.0,30.56,West,266,2.0,4.0,66,0.00,,,0.00,weatherlink.com 1.10,2013-11-23 13:05:00,
2013-11-23 07:20:00,30.4,19.0,30.56,NNW,332,1.0,5.0,64,0.00,,,0.00,weatherlink.com 1.10,2013-11-23 13:20:00,
2013-11-23 07:36:00,30.4,18.0,30.56,WNW,290,0.0,5.0,61,0.00,,,0.00,weatherlink.com 1.10,2013-11-23 13:36:00,
2013-11-23 07:51:00,30.5,18.0,30.57,NNW,346,2.0,8.0,60,0.00,,,0.00,weatherlink.com 1.10,2013-11-23 13:51:00,
2013-11-23 08:06:00,30.6,18.0,30.57,NW,326,2.0,7.0,60,0.00,,,0.00,weatherlink.com 1.10,2013-11-23 14:06:00,
2013-11-23 08:21:00,30.7,18.0,30.57,North,355,0.0,8.0,60,0.00,,,0.00,weatherlink.com 1.10,2013-11-23 14:21:00,
2013-11-23 08:36:00,30.9,19.0,30.58,WNW,292,0.0,7.0,61,0.00,,,0.00,weatherlink.com 1.10,2013-11-23 14:36:00,
2013-11-23 08:51:00,31.3,19.0,30.59,West,275,0.0,5.0,61,0.00,,,0.00,weatherlink.com 1.10,2013-11-23 14:51:00,
2013-11-23 09:06:00,31.4,19.0,30.59,NNW,338,2.0,7.0,61,0.00,,,0.00,weatherlink.com 1.10,2013-11-23 15:06:00,
2013-11-23 09:21:00,31.6,19.0,30.59,WNW,283,7.0,8.0,61,0.00,,,0.00,weatherlink.com 1.10,2013-11-23 15:21:00,
2013-11-23 09:36:00,31.7,19.0,30.59,WNW,291,0.0,7.0,60,0.00,,,0.00,weatherlink.com 1.10,2013-11-23 15:36:00,
2013-11-23 09:51:00,31.8,19.0,30.59,NW,316,5.0,7.0,59,0.00,,,0.00,weatherlink.com 1.10,2013-11-23 15:51:00,
2013-11-23 10:06:00,32.3,20.0,30.59,NNW,344,0.0,9.0,61,0.00,,,0.00,weatherlink.com 1.10,2013-11-23 16:06:00,
2013-11-23 10:21:00,32.2,20.0,30.59,NW,325,1.0,9.0,60,0.00,,,0.00,weatherlink.com 1.10,2013-11-23 16:21:00,
2013-11-23 10:36:00,32.4,20.0,30.60,North,5,3.0,11.0,61,0.00,,,0.00,weatherlink.com 1.10,2013-11-23 16:36:00,
2013-11-23 10:51:00,32.4,20.0,30.60,WNW,292,0.0,12.0,61,0.00,,,0.00,weatherlink.com 1.10,2013-11-23 16:51:00,
2013-11-23 11:06:00,32.5,21.0,30.61,NNW,345,5.0,13.0,62,0.00,,,0.00,weatherlink.com 1.10,2013-11-23 17:06:00,
2013-11-23 11:21:00,32.5,21.0,30.60,SW,234,1.0,12.0,62,0.00,,,0.00,weatherlink.com 1.10,2013-11-23 17:21:00,
2013-11-23 11:36:00,32.7,22.0,30.59,NNW,339,6.0,11.0,64,0.00,,,0.00,weatherlink.com 1.10,2013-11-23 17:36:00,
2013-11-23 11:51:00,32.3,19.0,30.60,NW,315,3.0,12.0,59,0.00,,,0.00,weatherlink.com 1.10,2013-11-23 17:51:00,
2013-11-23 12:06:00,32.3,19.0,30.60,North,360,6.0,13.0,58,0.00,,,0.00,weatherlink.com 1.10,2013-11-23 18:06:00,
2013-11-23 12:21:00,33.2,18.0,30.59,WNW,298,8.0,14.0,54,0.00,,,0.00,weatherlink.com 1.10,2013-11-23 18:21:00,
2013-11-23 12:36:00,33.5,18.0,30.59,NW,314,4.0,11.0,53,0.00,,,0.00,weatherlink.com 1.10,2013-11-23 18:36:00,
2013-11-23 12:51:00,33.9,15.0,30.60,North,351,4.0,13.0,47,0.00,,,0.00,weatherlink.com 1.10,2013-11-23 18:51:00,
2013-11-23 13:06:00,34.1,16.0,30.60,North,355,4.0,15.0,48,0.00,,,0.00,weatherlink.com 1.10,2013-11-23 19:06:00,
2013-11-23 13:21:00,34.4,16.0,30.60,NNW,342,3.0,10.0,48,0.00,,,0.00,weatherlink.com 1.10,2013-11-23 19:21:00,
2013-11-23 13:36:00,33.5,15.0,30.60,NNW,340,4.0,11.0,46,0.00,,,0.00,weatherlink.com 1.10,2013-11-23 19:36:00,
2013-11-23 13:51:00,32.2,14.0,30.60,NW,311,4.0,11.0,48,0.00,,,0.00,weatherlink.com 1.10,2013-11-23 19:51:00,
2013-11-23 14:06:00,33.1,16.0,30.60,North,360,7.0,12.0,50,0.00,,,0.00,weatherlink.com 1.10,2013-11-23 20:06:00,
2013-11-23 14:21:00,32.8,14.0,30.60,SW,234,5.0,13.0,47,0.00,,,0.00,weatherlink.com 1.10,2013-11-23 20:21:00,
2013-11-23 14:36:00,33.8,14.0,30.60,North,360,3.0,13.0,45,0.00,,,0.00,weatherlink.com 1.10,2013-11-23 20:36:00,
2013-11-23 14:51:00,33.4,12.0,30.60,WNW,286,4.0,12.0,42,0.00,,,0.00,weatherlink.com 1.10,2013-11-23 20:51:00,
2013-11-23 15:06:00,33.1,14.0,30.61,North,355,11.0,15.0,45,0.00,,,0.00,weatherlink.com 1.10,2013-11-23 21:06:00,
2013-11-23 15:21:00,32.8,12.0,30.61,NNW,340,4.0,14.0,43,0.00,,,0.00,weatherlink.com 1.10,2013-11-23 21:21:00,
2013-11-23 15:36:00,31.8,10.0,30.62,NNW,336,6.0,16.0,40,0.00,,,0.00,weatherlink.com 1.10,2013-11-23 21:36:00,
2013-11-23 15:51:00,31.4,12.0,30.63,NNW,335,7.0,14.0,44,0.00,,,0.00,weatherlink.com 1.10,2013-11-23 21:51:00,
2013-11-23 16:06:00,30.9,14.0,30.63,North,349,3.0,14.0,49,0.00,,,0.00,weatherlink.com 1.10,2013-11-23 22:06:00,
2013-11-23 16:21:00,30.0,13.0,30.64,NNW,340,6.0,12.0,49,0.00,,,0.00,weatherlink.com 1.10,2013-11-23 22:21:00,
2013-11-23 16:36:00,28.8,10.0,30.65,North,360,5.0,13.0,46,0.00,,,0.00,weatherlink.com 1.10,2013-11-23 22:36:00,
2013-11-23 16:51:00,27.7,11.0,30.65,NNW,344,3.0,15.0,49,0.00,,,0.00,weatherlink.com 1.10,2013-11-23 22:51:00,
2013-11-23 17:07:00,27.1,11.0,30.65,NE,44,2.0,12.0,52,0.00,,,0.00,weatherlink.com 1.10,2013-11-23 23:07:00,
2013-11-23 17:22:00,26.7,12.0,30.66,NW,324,1.0,11.0,53,0.00,,,0.00,weatherlink.com 1.10,2013-11-23 23:22:00,
2013-11-23 17:37:00,26.3,12.0,30.66,NNW,333,7.0,10.0,56,0.00,,,0.00,weatherlink.com 1.10,2013-11-23 23:37:00,
2013-11-23 17:52:00,25.9,12.0,30.66,North,355,3.0,8.0,57,0.00,,,0.00,weatherlink.com 1.10,2013-11-23 23:52:00,
2013-11-23 18:07:00,25.5,12.0,30.67,North,5,4.0,11.0,57,0.00,,,0.00,weatherlink.com 1.10,2013-11-24 00:07:00,
2013-11-23 18:22:00,25.1,12.0,30.67,NNE,17,2.0,9.0,59,0.00,,,0.00,weatherlink.com 1.10,2013-11-24 00:22:00,
2013-11-23 18:37:00,24.8,12.0,30.68,North,5,3.0,9.0,59,0.00,,,0.00,weatherlink.com 1.10,2013-11-24 00:37:00,
2013-11-23 18:52:00,24.5,13.0,30.68,NW,305,4.0,7.0,61,0.00,,,0.00,weatherlink.com 1.10,2013-11-24 00:52:00,
2013-11-23 19:07:00,24.2,13.0,30.68,NNW,327,1.0,8.0,62,0.00,,,0.00,weatherlink.com 1.10,2013-11-24 01:07:00,
2013-11-23 19:22:00,24.0,13.0,30.68,NW,311,2.0,9.0,63,0.00,,,0.00,weatherlink.com 1.10,2013-11-24 01:22:00,
2013-11-23 19:37:00,23.6,13.0,30.69,NE,47,4.0,8.0,63,0.00,,,0.00,weatherlink.com 1.10,2013-11-24 01:37:00,
2013-11-23 19:52:00,23.4,12.0,30.69,NNW,344,5.0,10.0,61,0.00,,,0.00,weatherlink.com 1.10,2013-11-24 01:52:00,
2013-11-23 20:07:00,23.1,12.0,30.69,North,355,2.0,11.0,62,0.00,,,0.00,weatherlink.com 1.10,2013-11-24 02:07:00,
2013-11-23 20:22:00,22.7,12.0,30.70,North,5,5.0,9.0,64,0.00,,,0.00,weatherlink.com 1.10,2013-11-24 02:22:00,
2013-11-23 20:37:00,22.3,12.0,30.70,North,355,1.0,6.0,65,0.00,,,0.00,weatherlink.com 1.10,2013-11-24 02:37:00,
2013-11-23 20:52:00,22.0,12.0,30.70,North,11,2.0,9.0,66,0.00,,,0.00,weatherlink.com 1.10,2013-11-24 02:52:00,
2013-11-23 21:07:00,21.5,12.0,30.71,North,351,2.0,6.0,67,0.00,,,0.00,weatherlink.com 1.10,2013-11-24 03:07:00,
2013-11-23 21:22:00,21.3,12.0,30.71,NE,49,1.0,10.0,67,0.00,,,0.00,weatherlink.com 1.10,2013-11-24 03:22:00,
2013-11-23 21:37:00,21.0,12.0,30.71,NNE,26,2.0,5.0,68,0.00,,,0.00,weatherlink.com 1.10,2013-11-24 03:37:00,
2013-11-23 21:52:00,20.8,12.0,30.71,NNE,30,3.0,8.0,69,0.00,,,0.00,weatherlink.com 1.10,2013-11-24 03:52:00,
2013-11-23 22:22:00,20.4,12.0,30.71,NNE,15,1.0,6.0,69,0.00,,,0.00,weatherlink.com 1.10,2013-11-24 04:22:00,
2013-11-23 22:37:00,20.1,12.0,30.71,North,360,1.0,4.0,70,0.00,,,0.00,weatherlink.com 1.10,2013-11-24 04:37:00,
2013-11-23 22:52:00,19.8,12.0,30.71,North,5,1.0,4.0,71,0.00,,,0.00,weatherlink.com 1.10,2013-11-24 04:52:00,
2013-11-23 23:07:00,19.5,12.0,30.71,North,5,0.0,1.0,72,0.00,,,0.00,weatherlink.com 1.10,2013-11-24 05:07:00,
2013-11-23 23:22:00,19.1,12.0,30.71,North,5,1.0,2.0,73,0.00,,,0.00,weatherlink.com 1.10,2013-11-24 05:22:00,
2013-11-23 23:37:00,18.7,12.0,30.71,North,10,0.0,2.0,74,0.00,,,0.00,weatherlink.com 1.10,2013-11-24 05:37:00,
2013-11-23 23:52:00,18.3,12.0,30.71,North,9,0.0,2.0,75,0.00,,,0.00,weatherlink.com 1.10,2013-11-24 05:52:00,